If you wish to contribute or participate in the discussions about articles you are invited to join SKYbrary as a registered user

 Actions

Frankfurt Hahn

From SKYbrary Wiki

EDFH
Airport
ICAO: EDFH
Summary
Name Frankfurt Hahn
Region Europe
Territory Germany DE.gif
Location Frankfurt Hahn
Serving
Coordinates 49° 56' 54.00" N, 7° 15' 48.00" E
Runways
Designator Length Width Surface ROPS
3/21 3800 m12,467.192 ft
45 m147.638 ft
ASP yes/yes


METAR
Observation EDFH 230120Z 27016KT 9000 -RA BKN004 07/07 Q1023
Station Hahn
Date/Time 23 February 2020 01:20:00
Wind direction 270°
Wind speed 16 kts
Lowest cloud amount broken clouds
Temperature 7°C
Dew point 7°C
Humidity 100%
QNH 1023 hPa
Weather condition n/a


Frankfurt Hahn Airport

ICAO: EDFH IATA: HHN

Description

International airport serving the district of Rhineland-Palatinate to the west of central Germany. Despite its name, the airport is situated over 120 km (75 mi) to the west of the city of Frankfurt (by road).

Climatology

Temperate Marine climate/Oceanic climate (Köppen climate classification Cfb) - Moderately cool summer and comparatively warm winter.

Maps

Terrain

Loading map...

Airport Layout

Loading map...


Accidents & Serious Incidents at or in vicinity of EDFH

None on SKYbrary